Flag for USA

Past Weather in Mount Vernon, Ohio, USA — Yesterday and Last 2 Weeks

Currently: 36 °F. Overcast. (Weather station: Knox County Airport, USA). See more current weather

Past Weather in Mount Vernon — Graph

°F

Mount Vernon Temperature Yesterday

Maximum temperature yesterday: 39 °F (at 11:35 am)
Minimum temperature yesterday: 25 °F (at 3:55 am)
Average temperature yesterday: 31 °F

High & Low Weather Summary for the Past Weeks

 TemperatureHumidityPressure
High59 °F (Nov 20, 2:15 pm)100% (Nov 21, 1:35 pm)30.49 "Hg (Nov 21, 1:35 pm)
Low25 °F (Dec 2, 6:15 am)33% (Nov 19, 9:15 pm)29.54 "Hg (Nov 30, 11:55 am)
Average39 °F81%30.10 "Hg
* Reported Nov 19 9:15 pm — Dec 4 9:15 pm, Mount Vernon. Weather by CustomWeather, © 2020

Note: Actual official high and low records may vary slightly from our data, if they occured in-between our weather recording intervals... More about our weather records

Mount Vernon Weather History for the Previous 24 Hours

Scroll right to see more
 ConditionsComfort  
Time TempWeatherWind HumidityBarometerVisibility
9:15 pm
Fri, Dec 4
36 °FPassing clouds.5 mph87%29.92 "Hg10 mi
8:35 pm36 °FPassing clouds.5 mph87%29.92 "Hg10 mi
8:15 pm36 °FPassing clouds.3 mph87%29.91 "Hg10 mi
7:55 pm37 °FPassing clouds.5 mph81%29.91 "Hg10 mi
7:15 pm36 °FPassing clouds.3 mph87%29.91 "Hg10 mi
6:55 pm36 °FPassing clouds.No wind87%29.90 "Hg10 mi
6:35 pm37 °FClear.3 mph87%29.90 "Hg10 mi
6:15 pm37 °FClear.No wind87%29.90 "Hg10 mi
5:55 pm39 °FClear.5 mph81%29.89 "Hg10 mi
5:35 pm39 °FClear.3 mph81%29.90 "Hg10 mi
5:15 pm39 °FClear.3 mph81%29.89 "Hg10 mi
4:55 pm41 °FSunny.5 mph70%29.89 "Hg10 mi
4:35 pm43 °FSunny.5 mph66%29.89 "Hg10 mi
4:15 pm43 °FSunny.5 mph66%29.88 "Hg10 mi
3:55 pm43 °FSunny.5 mph66%29.88 "Hg10 mi
3:35 pm45 °FSunny.7 mph61%29.89 "Hg10 mi
3:15 pm45 °FSunny.8 mph57%29.90 "Hg10 mi
2:55 pm45 °FSunny.7 mph61%29.89 "Hg10 mi
2:35 pm45 °FScattered clouds.5 mph61%29.90 "Hg10 mi
2:15 pm43 °FScattered clouds.8 mph66%29.91 "Hg10 mi
1:55 pm45 °FSunny.7 mph61%29.91 "Hg10 mi
1:35 pm45 °FSunny.8 mph61%29.92 "Hg10 mi
1:15 pm45 °FScattered clouds.8 mph61%29.94 "Hg10 mi
12:55 pm45 °FScattered clouds.8 mph61%29.94 "Hg10 mi
12:35 pm45 °FPartly sunny.10 mph61%29.96 "Hg10 mi
12:15 pm43 °FOvercast.6 mph66%29.97 "Hg10 mi
11:55 am41 °FPartly sunny.12 mph66%29.98 "Hg10 mi
11:35 am43 °FScattered clouds.12 mph61%29.99 "Hg10 mi
11:15 am41 °FScattered clouds.13 mph66%30.00 "Hg10 mi
10:55 am41 °FSunny.10 mph66%30.01 "Hg10 mi
10:35 am43 °FSunny.10 mph61%30.01 "Hg10 mi
10:15 am41 °FSunny.10 mph61%30.02 "Hg10 mi
9:55 am41 °FSunny.9 mph57%30.01 "Hg10 mi
9:35 am39 °FSunny.9 mph61%30.00 "Hg10 mi
9:15 am37 °FSunny.9 mph65%30.00 "Hg10 mi
8:55 am36 °FSunny.7 mph70%30.00 "Hg10 mi
8:35 am34 °FSunny.6 mph70%30.01 "Hg10 mi
8:15 am34 °FSunny.3 mph70%30.01 "Hg10 mi
7:55 am32 °FSunny.5 mph80%30.01 "Hg10 mi
7:35 am32 °FClear.6 mph80%30.01 "Hg10 mi
7:15 am32 °FClear.5 mph80%30.01 "Hg10 mi
6:55 am32 °FClear.5 mph80%30.01 "Hg10 mi
6:35 am32 °FClear.6 mph80%30.02 "Hg10 mi
6:15 am32 °FClear.6 mph80%30.02 "Hg10 mi
5:55 am32 °FClear.5 mph80%30.02 "Hg10 mi
5:35 am32 °FClear.5 mph80%30.02 "Hg10 mi
5:15 am34 °FPassing clouds.6 mph75%30.02 "Hg10 mi
4:55 am34 °FPassing clouds.5 mph75%30.02 "Hg10 mi
4:35 am34 °FPassing clouds.5 mph75%30.03 "Hg10 mi
4:15 am34 °FOvercast.5 mph75%30.01 "Hg10 mi
3:55 am34 °FOvercast.5 mph81%30.03 "Hg10 mi
3:35 am34 °FOvercast.5 mph81%30.03 "Hg10 mi
3:15 am34 °FOvercast.3 mph81%30.04 "Hg10 mi
2:55 am34 °FOvercast.No wind81%30.05 "Hg10 mi
2:35 am34 °FPassing clouds.5 mph81%30.05 "Hg10 mi
1:55 am34 °FPassing clouds.5 mph81%30.06 "Hg10 mi
1:35 am34 °FPassing clouds.No wind81%30.05 "Hg10 mi
1:15 am36 °FOvercast.3 mph75%30.06 "Hg10 mi
12:55 am36 °FOvercast.3 mph75%30.08 "Hg10 mi
12:35 am36 °FMostly cloudy.5 mph75%30.09 "Hg10 mi
12:15 am34 °FPassing clouds.5 mph81%30.10 "Hg10 mi
11:55 pm
Thu, Dec 3
34 °FOvercast.5 mph81%30.09 "Hg10 mi
11:35 pm34 °FOvercast.7 mph81%30.11 "Hg10 mi
11:15 pm34 °FOvercast.6 mph81%30.11 "Hg10 mi
10:55 pm34 °FOvercast.6 mph81%30.11 "Hg10 mi
10:35 pm32 °FPassing clouds.6 mph80%30.12 "Hg10 mi
10:15 pm32 °FClear.7 mph80%30.12 "Hg10 mi
Weather by CustomWeather, © 2020

See weather overview